VK6DUG Weather Reports


time (UTC)temp
C
wind
direction
speed
KPH
gust
KPH
rain 1hr
cm
rain 24hr
cm
rain mn
cm
humidity
%
barometer
mb
20260505024017 18 71 0.0 4.8 0.00 0.00 0.00 61 1030.2
20260505023035 18 77 1.6 6.4 0.00 0.00 0.00 61 1030.1
20260505022030 18 95 1.6 6.4 0.00 0.00 0.00 62 1030.2
20260505021027 18 133 1.6 6.4 0.00 0.00 0.00 62 1030.2
20260505020024 17 153 1.6 6.4 0.00 0.00 0.00 64 1030.3
20260505015022 17 164 3.2 6.4 0.00 0.00 0.00 68 1030.3
20260505014019 17 165 3.2 6.4 0.00 0.00 0.00 70 1030.3
20260505013016 17 174 3.2 6.4 0.00 0.00 0.00 71 1030.3
20260505012033 17 181 3.2 4.8 0.00 0.00 0.00 73 1030.3
20260505011030 16 136 3.2 6.4 0.00 0.00 0.00 77 1030.4
20260505010028 15 36 1.6 4.8 0.00 0.00 0.00 85 1030.3
20260505005026 13 105 3.2 8.0 0.00 0.00 0.00 91 1030.4
20260505004023 13 59 1.6 4.8 0.00 0.00 0.00 94 1030.4
20260505003020 12 62 1.6 4.8 0.00 0.00 0.00 95 1030.2
20260505002017 11 85 1.6 3.2 0.00 0.00 0.00 96 1030.2
20260505001035 11 76 1.6 3.2 0.00 0.00 0.00 96 1030.2
20260505000032 10 82 1.6 4.8 0.00 0.00 0.00 96 1029.9
20260504235029 10 44 1.6 4.8 0.00 0.00 0.00 96 1029.9
20260504234027 9 32 1.6 4.8 0.00 0.00 0.00 96 1029.6
20260504233024 9 102 1.6 4.8 0.00 0.00 0.00 96 1029.4
20260504232021 8 96 1.6 3.2 0.00 0.00 0.00 95 1029.2
20260504231018 8 109 1.6 4.8 0.00 0.00 0.00 95 1029.2
20260504230034 8 65 0.0 4.8 0.00 0.00 0.00 95 1029.0
20260504225032 8 72 1.6 4.8 0.00 0.00 0.00 95 1028.8
20260504224030 8 52 1.6 3.2 0.00 0.00 0.00 95 1028.8
20260504223028 9 44 1.6 4.8 0.00 0.00 0.00 95 1028.8
20260504222025 9 288 1.6 3.2 0.00 0.00 0.00 95 1028.7
20260504221022 9 9 3.2 6.4 0.00 0.00 0.00 95 1028.7
20260504220018 9 66 1.6 3.2 0.00 0.00 0.00 95 1028.5
20260504215032 9 9 3.2 6.4 0.00 0.00 0.00 95 1028.6
20260504214029 8 169 1.6 4.8 0.00 0.00 0.00 95 1028.5
20260504213025 9 351 1.6 6.4 0.00 0.00 0.00 95 1028.6
20260504212021 8 261 3.2 6.4 0.00 0.00 0.00 95 1028.7
20260504211019 8 50 3.2 6.4 0.00 0.00 0.00 94 1028.7
20260504210036 8 124 1.6 4.8 0.00 0.00 0.00 94 1028.7
20260504205031 8 23 3.2 6.4 0.00 0.00 0.00 94 1028.7
20260504204028 8 316 3.2 6.4 0.00 0.00 0.00 94 1028.8
20260504203024 9 353 4.8 8.0 0.00 0.00 0.00 94 1028.8
20260504202021 8 301 1.6 4.8 0.00 0.00 0.00 94 1028.7
20260504201019 8 140 3.2 4.8 0.00 0.00 0.00 94 1028.7
20260504200017 9 323 4.8 6.4 0.00 0.00 0.00 94 1028.7
20260504195032 8 110 1.6 3.2 0.00 0.00 0.00 94 1028.7
20260504194030 8 245 3.2 4.8 0.00 0.00 0.00 94 1028.8
20260504193025 8 288 1.6 4.8 0.00 0.00 0.00 94 1028.8
20260504192020 8 72 1.6 3.2 0.00 0.00 0.00 94 1028.9
20260504191017 9 64 1.6 3.2 0.00 0.00 0.00 94 1028.9
20260504190034 9 78 1.6 3.2 0.00 0.00 0.00 94 1029.0
20260504185029 9 84 1.6 3.2 0.00 0.00 0.00 94 1029.0
20260504184025 8 95 1.6 3.2 0.00 0.00 0.00 94 1029.0
20260504183022 8 78 1.6 3.2 0.00 0.00 0.00 94 1029.1
20260504182018 8 64 1.6 4.8 0.00 0.00 0.00 94 1029.0
20260504181034 9 109 1.6 3.2 0.00 0.00 0.00 93 1029.0
20260504180030 9 101 1.6 3.2 0.00 0.00 0.00 93 1029.1
20260504175026 9 73 1.6 3.2 0.00 0.00 0.00 93 1029.2
20260504174021 9 70 1.6 3.2 0.00 0.00 0.00 93 1029.2
20260504173017 9 81 1.6 3.2 0.00 0.00 0.00 93 1029.3
20260504172035 9 79 1.6 3.2 0.00 0.00 0.00 93 1029.3
20260504171031 9 117 1.6 4.8 0.00 0.00 0.00 93 1029.3
20260504151028 10 129 1.6 4.8 0.00 0.00 0.00 89 1029.4
20260504141024 11 66 1.6 3.2 0.00 0.00 0.00 87 1029.9
20260504081021 19 180 6.4 12.9 0.00 0.00 0.00 67 1028.5
20260504045024 20 136 3.2 8.0 0.00 0.00 0.00 55 1029.6
20260504044021 20 177 1.6 4.8 0.00 0.00 0.00 55 1029.7
20260504043019 20 152 1.6 4.8 0.00 0.00 0.00 57 1029.9
20260504042016 20 3 1.6 6.4 0.00 0.00 0.00 55 1030.0
20260504041033 20 337 1.6 4.8 0.00 0.00 0.00 57 1030.3
20260504040029 18 186 3.2 6.4 0.00 0.00 0.00 60 1030.4
20260504035027 19 123 3.2 9.7 0.00 0.00 0.00 60 1030.6
20260504034024 19 31 1.6 8.0 0.00 0.00 0.00 59 1030.8
20260504033021 18 74 3.2 8.0 0.00 0.00 0.00 60 1030.8
20260504032018 18 344 1.6 6.4 0.00 0.00 0.00 61 1031.1
20260504031035 19 19 1.6 4.8 0.00 0.00 0.00 59 1031.0
20260504030033 18 78 1.6 6.4 0.00 0.00 0.00 62 1031.2
20260504025030 18 100 1.6 8.0 0.00 0.00 0.00 64 1031.2